Printer-friendly version

IAU Minor Planet Center

Minor Planet Center

MPEC 2005-Y33 : COMET C/2005 X1 (BESHORE)

The following Minor Planet Electronic Circular may be linked-to from your own Web pages, but must not otherwise be redistributed electronically.


Read MPEC 2005-Y32 Read MPEC 2005-Y34


M.P.E.C. 2005-Y33                                Issued 2005 Dec. 25, 04:46 UT

     The Minor Planet Electronic Circulars contain information on unusual
         minor planets and routine data on comets.  They are published
   on behalf of Commission 20 of the International Astronomical Union by the
          Minor Planet Center, Smithsonian Astrophysical Observatory,
                          Cambridge, MA 02138, U.S.A.

                  Supported in part by the Brinson Foundation
                  Supported in part by the TABASGO Foundation
             Prepared using the Tamkin Foundation Computer Network

                              MPC@CFA.HARVARD.EDU
          URL http://cfa-www.harvard.edu/iau/mpc.html  ISSN 1523-6714

                           COMET C/2005 X1 (BESHORE)

Observations:
    CK05X010  C2005 12 19.99863 09 54 16.82 +38 13 57.3                 EY033213
    CK05X010  C2005 12 20.02191 09 54 14.51 +38 13 53.1                 EY033213
    CK05X010  C2005 12 20.05204 09 54 11.28 +38 13 50.0                 EY033213
    CK05X010  C2005 12 22.75067 09 49 21.07 +38 07 47.4                 EY033349
    CK05X010  C2005 12 22.75927 09 49 20.14 +38 07 46.4                 EY033349
    CK05X010  C2005 12 22.76789 09 49 19.13 +38 07 45.0          18.1 T EY033349
    CK05X010  C2005 12 23.76040 09 47 28.61 +38 05 18.4                 EY033349
    CK05X010  C2005 12 23.76402 09 47 28.18 +38 05 17.5                 EY033349
    CK05X010  C2005 12 23.76762 09 47 27.75 +38 05 16.9          18.2 T EY033349

Observer details:
213 Observatorio Montcabre.  Observer R. Naves.  Measurer M. Campas.  0.30-m
    f/10 Schmidt-Cassegrain + CCD.
349 Ageo.  Observer K. Kadota.  0.25-m f/5.0 reflector + CCD.

Orbital elements:
    C/2005 X1 (Beshore)
T 2005 July 7.796 TT                                    MPC
q   2.88239              (2000.0)            P               Q
                   Peri.  118.554       -0.286580       -0.459849
                   Node   302.745       +0.003159       +0.876821
e   1.0            Incl.   92.175       +0.958051       -0.140445
From 38 observations 2005 Dec. 7-23.

Ephemeris:
    C/2005 X1 (Beshore)
Date    TT    R. A. (2000) Decl.     Delta      r     Elong.  Phase   m1    m2
2005 12 16    10 00.95   +38 21.6    2.674    3.303   122.0    14.6  17.8
2005 12 26    09 43.20   +37 59.3    2.591    3.352   134.2    12.1  17.8
2006 01 05    09 22.31   +37 22.0    2.538    3.403   146.6     9.1  17.8
2006 01 15    08 59.53   +36 22.0    2.523    3.455   158.0     6.1  17.9
2006 01 25    08 36.62   +34 56.8    2.552    3.509   164.0     4.4  18.0

Brian G. Marsden             (C) Copyright 2005 MPC           M.P.E.C. 2005-Y33

Read MPEC 2005-Y32 Read MPEC 2005-Y34


Our Web policy. Index to the CBAT/MPC/ICQ pages.


Valid HTML 4.01!